Terminal Aerodrome Forecast
Issued by NWS St Louis, MO

Home | Current Version | Previous Version | Text Only | Print | Product List | Glossary On
Versions: 1 2 3 4 5 6 7 8 9 10 11 12 13 14 15 16 17 18 19 20 21 22 23 24 25
000
FTUS43 KLSX 250300 AAC
TAFCOU
TAF AMD
KCOU 250330Z 2503/2524 16008KT P6SM -SHRA SCT005 BKN012
      TEMPO 2503/2505 5SM -SHRA BR BKN005
     FM250600 22012KT P6SM SCT009 BKN020
     FM251300 19009KT P6SM SCT030=

USA.gov is the U.S. government's official web portal to all federal, state and local government web resources and services.